Year,Month,Day,Hour,Minute,Value (Times are PST for temperature in C)
2019,09,26,00,00,13.10
2019,09,26,00,01,13.10
2019,09,26,00,02,13.10
2019,09,26,00,03,13.10
2019,09,26,00,04,13.10
2019,09,26,00,05,13.10
2019,09,26,00,06,13.10
2019,09,26,00,07,13.10
2019,09,26,00,08,13.10
2019,09,26,00,09,13.10
2019,09,26,00,10,13.10
2019,09,26,00,11,13.10
2019,09,26,00,12,13.10
2019,09,26,00,13,13.10
2019,09,26,00,14,13.10
2019,09,26,00,15,13.10
2019,09,26,00,16,13.10
2019,09,26,00,17,13.10
2019,09,26,00,18,13.10
2019,09,26,00,19,13.10
2019,09,26,00,20,13.10
2019,09,26,00,21,13.10
2019,09,26,00,22,13.10
2019,09,26,00,23,13.10
2019,09,26,00,24,13.10
2019,09,26,00,25,13.10
2019,09,26,00,26,13.10
2019,09,26,00,27,13.10
2019,09,26,00,28,13.10
2019,09,26,00,29,13.10
2019,09,26,00,30,13.10
2019,09,26,00,31,13.10
2019,09,26,00,32,13.10
2019,09,26,00,33,13.10
2019,09,26,00,34,13.10
2019,09,26,00,35,13.20
2019,09,26,00,36,13.20
2019,09,26,00,37,13.20
2019,09,26,00,38,13.20
2019,09,26,00,39,13.20
2019,09,26,00,40,13.20
2019,09,26,00,41,13.20
2019,09,26,00,42,13.20
2019,09,26,00,43,13.30
2019,09,26,00,44,13.30
2019,09,26,00,45,13.30
2019,09,26,00,46,13.30
2019,09,26,00,47,13.40
2019,09,26,00,48,13.40
2019,09,26,00,49,13.50
2019,09,26,00,50,13.60
2019,09,26,00,51,13.70
2019,09,26,00,52,13.80
2019,09,26,00,53,13.90
2019,09,26,00,54,14.00
2019,09,26,00,55,14.10
2019,09,26,00,56,14.20
2019,09,26,00,57,14.30
2019,09,26,00,58,14.30
2019,09,26,00,59,14.30
2019,09,26,01,00,14.40
2019,09,26,01,01,14.40
2019,09,26,01,02,14.40
2019,09,26,01,03,14.40
2019,09,26,01,04,14.40
2019,09,26,01,05,14.40
2019,09,26,01,06,14.40
2019,09,26,01,07,14.40
2019,09,26,01,08,14.30
2019,09,26,01,09,14.30
2019,09,26,01,10,14.30
2019,09,26,01,11,14.30
2019,09,26,01,12,14.30
2019,09,26,01,13,14.20
2019,09,26,01,14,14.20
2019,09,26,01,15,14.20
2019,09,26,01,16,14.20
2019,09,26,01,17,14.20
2019,09,26,01,18,14.10
2019,09,26,01,19,14.10
2019,09,26,01,20,14.10
2019,09,26,01,21,14.10
2019,09,26,01,22,14.10
2019,09,26,01,23,14.10
2019,09,26,01,24,14.10
2019,09,26,01,25,14.10
2019,09,26,01,26,14.10
2019,09,26,01,27,14.10
2019,09,26,01,28,14.10
2019,09,26,01,29,14.10
2019,09,26,01,30,14.10
2019,09,26,01,31,14.10
2019,09,26,01,32,14.10
2019,09,26,01,33,14.10
2019,09,26,01,34,14.10
2019,09,26,01,35,14.10
2019,09,26,01,36,14.10
2019,09,26,01,37,14.10
2019,09,26,01,38,14.10
2019,09,26,01,39,14.10
2019,09,26,01,40,14.10
2019,09,26,01,41,14.10
2019,09,26,01,42,14.10
2019,09,26,01,43,14.10
2019,09,26,01,44,14.10
2019,09,26,01,45,14.10
2019,09,26,01,46,14.10
2019,09,26,01,47,14.00
2019,09,26,01,48,14.00
2019,09,26,01,49,14.00
2019,09,26,01,50,14.00
2019,09,26,01,51,13.90
2019,09,26,01,52,13.90
2019,09,26,01,53,13.90
2019,09,26,01,54,13.90
2019,09,26,01,55,13.90
2019,09,26,01,56,13.80
2019,09,26,01,57,13.80
2019,09,26,01,58,13.80
2019,09,26,01,59,13.80
2019,09,26,02,00,13.80
2019,09,26,02,01,13.80
2019,09,26,02,02,13.80
2019,09,26,02,03,13.70
2019,09,26,02,04,13.70
2019,09,26,02,05,13.70
2019,09,26,02,06,13.70
2019,09,26,02,07,13.70
2019,09,26,02,08,13.60
2019,09,26,02,09,13.60
2019,09,26,02,10,13.60
2019,09,26,02,11,13.60
2019,09,26,02,12,13.60
2019,09,26,02,13,13.60
2019,09,26,02,14,13.60
2019,09,26,02,15,13.60
2019,09,26,02,16,13.60
2019,09,26,02,17,13.60
2019,09,26,02,18,13.50
2019,09,26,02,19,13.50
2019,09,26,02,20,13.50
2019,09,26,02,21,13.40
2019,09,26,02,22,13.40
2019,09,26,02,23,13.40
2019,09,26,02,24,13.40
2019,09,26,02,25,13.40
2019,09,26,02,26,13.50
2019,09,26,02,27,13.50
2019,09,26,02,28,13.50
2019,09,26,02,29,13.50
2019,09,26,02,30,13.50
2019,09,26,02,31,13.40
2019,09,26,02,32,13.40
2019,09,26,02,33,13.40
2019,09,26,02,34,13.40
2019,09,26,02,35,13.40
2019,09,26,02,36,13.40
2019,09,26,02,37,13.40
2019,09,26,02,38,13.50
2019,09,26,02,39,13.60
2019,09,26,02,40,13.60
2019,09,26,02,41,13.60
2019,09,26,02,42,13.60
2019,09,26,02,43,13.60
2019,09,26,02,44,13.60
2019,09,26,02,45,13.70
2019,09,26,02,46,13.70
2019,09,26,02,47,13.70
2019,09,26,02,48,13.70
2019,09,26,02,49,13.70
2019,09,26,02,50,13.70
2019,09,26,02,51,13.80
2019,09,26,02,52,13.80
2019,09,26,02,53,13.80
2019,09,26,02,54,13.90
2019,09,26,02,55,13.90
2019,09,26,02,56,13.90
2019,09,26,02,57,13.90
2019,09,26,02,58,13.90
2019,09,26,02,59,13.90
2019,09,26,03,00,13.90
2019,09,26,03,01,13.90
2019,09,26,03,02,13.80
2019,09,26,03,03,13.80
2019,09,26,03,04,13.80
2019,09,26,03,05,13.80
2019,09,26,03,06,13.80
2019,09,26,03,07,13.80
2019,09,26,03,08,13.80
2019,09,26,03,09,13.80
2019,09,26,03,10,13.80
2019,09,26,03,11,13.80
2019,09,26,03,12,13.70
2019,09,26,03,13,13.70
2019,09,26,03,14,13.70
2019,09,26,03,15,13.70
2019,09,26,03,16,13.70
2019,09,26,03,17,13.70
2019,09,26,03,18,13.70
2019,09,26,03,19,13.70
2019,09,26,03,20,13.70
2019,09,26,03,21,13.70
2019,09,26,03,22,13.70
2019,09,26,03,23,13.70
2019,09,26,03,24,13.70
2019,09,26,03,25,13.70
2019,09,26,03,26,13.70
2019,09,26,03,27,13.70
2019,09,26,03,28,13.70
2019,09,26,03,29,13.70
2019,09,26,03,30,13.70
2019,09,26,03,31,13.70
2019,09,26,03,32,13.70
2019,09,26,03,33,13.70
2019,09,26,03,34,13.70
2019,09,26,03,35,13.70
2019,09,26,03,36,13.70
2019,09,26,03,37,13.70
2019,09,26,03,38,13.70
2019,09,26,03,39,13.70
2019,09,26,03,40,13.70
2019,09,26,03,41,13.70
2019,09,26,03,42,13.70
2019,09,26,03,43,13.60
2019,09,26,03,44,13.60
2019,09,26,03,45,13.60
2019,09,26,03,46,13.60
2019,09,26,03,47,13.60
2019,09,26,03,48,13.60
2019,09,26,03,49,13.60
2019,09,26,03,50,13.60
2019,09,26,03,51,13.60
2019,09,26,03,52,13.60
2019,09,26,03,53,13.60
2019,09,26,03,54,13.60
2019,09,26,03,55,13.60
2019,09,26,03,56,13.50
2019,09,26,03,57,13.50
2019,09,26,03,58,13.50
2019,09,26,03,59,13.50
2019,09,26,04,00,13.40
2019,09,26,04,01,13.40
2019,09,26,04,02,13.40
2019,09,26,04,03,13.40
2019,09,26,04,04,13.30
2019,09,26,04,05,13.30
2019,09,26,04,06,13.30
2019,09,26,04,07,13.30
2019,09,26,04,08,13.30
2019,09,26,04,09,13.30
2019,09,26,04,10,13.30
2019,09,26,04,11,13.30
2019,09,26,04,12,13.30
2019,09,26,04,13,13.30
2019,09,26,04,14,13.20
2019,09,26,04,15,13.10
2019,09,26,04,16,13.00
2019,09,26,04,17,12.90
2019,09,26,04,18,12.80
2019,09,26,04,19,12.70
2019,09,26,04,20,12.50
2019,09,26,04,21,12.40
2019,09,26,04,22,12.40
2019,09,26,04,23,12.30
2019,09,26,04,24,12.30
2019,09,26,04,25,12.20
2019,09,26,04,26,12.20
2019,09,26,04,27,12.20
2019,09,26,04,28,12.20
2019,09,26,04,29,12.20
2019,09,26,04,30,12.20
2019,09,26,04,31,12.20
2019,09,26,04,32,12.20
2019,09,26,04,33,12.20
2019,09,26,04,34,12.20
2019,09,26,04,35,12.30
2019,09,26,04,36,12.30
2019,09,26,04,37,12.30
2019,09,26,04,38,12.40
2019,09,26,04,39,12.50
2019,09,26,04,40,12.50
2019,09,26,04,41,12.60
2019,09,26,04,42,12.60
2019,09,26,04,43,12.60
2019,09,26,04,44,12.70
2019,09,26,04,45,12.70
2019,09,26,04,46,12.80
2019,09,26,04,47,12.80
2019,09,26,04,48,12.90
2019,09,26,04,49,12.90
2019,09,26,04,50,13.00
2019,09,26,04,51,13.20
2019,09,26,04,52,13.40
2019,09,26,04,53,13.60
2019,09,26,04,54,13.70
2019,09,26,04,55,13.90
2019,09,26,04,56,14.20
2019,09,26,04,57,14.40
2019,09,26,04,58,14.60
2019,09,26,04,59,14.60
2019,09,26,05,00,14.60
2019,09,26,05,01,14.40
2019,09,26,05,02,14.30
2019,09,26,05,03,14.20
2019,09,26,05,04,14.20
2019,09,26,05,05,14.20
2019,09,26,05,06,14.30
2019,09,26,05,07,14.30
2019,09,26,05,08,14.30
2019,09,26,05,09,14.40
2019,09,26,05,10,14.40
2019,09,26,05,11,14.40
2019,09,26,05,12,14.50
2019,09,26,05,13,14.70
2019,09,26,05,14,14.80
2019,09,26,05,15,14.90
2019,09,26,05,16,15.00
2019,09,26,05,17,15.00
2019,09,26,05,18,15.10
2019,09,26,05,19,15.10
2019,09,26,05,20,15.20
2019,09,26,05,21,15.30
2019,09,26,05,22,15.40
2019,09,26,05,23,15.50
2019,09,26,05,24,15.60
2019,09,26,05,25,15.60
2019,09,26,05,26,15.70
2019,09,26,05,27,15.70
2019,09,26,05,28,15.70
2019,09,26,05,29,15.70
2019,09,26,05,30,15.70
2019,09,26,05,31,15.80
2019,09,26,05,32,15.80
2019,09,26,05,33,15.80
2019,09,26,05,34,15.80
2019,09,26,05,35,15.80
2019,09,26,05,36,15.80
2019,09,26,05,37,15.80
2019,09,26,05,38,15.80
2019,09,26,05,39,15.80
2019,09,26,05,40,15.80
2019,09,26,05,41,15.80
2019,09,26,05,42,15.90
2019,09,26,05,43,15.90
2019,09,26,05,44,16.00
2019,09,26,05,45,16.00
2019,09,26,05,46,16.10
2019,09,26,05,47,16.10
2019,09,26,05,48,16.10
2019,09,26,05,49,16.10
2019,09,26,05,50,16.10
2019,09,26,05,51,16.10
2019,09,26,05,52,16.20
2019,09,26,05,53,16.20
2019,09,26,05,54,16.20
2019,09,26,05,55,16.20
2019,09,26,05,56,16.20
2019,09,26,05,57,16.20
2019,09,26,05,58,16.20
2019,09,26,05,59,16.20
2019,09,26,06,00,16.20
2019,09,26,06,01,16.20
2019,09,26,06,02,16.20
2019,09,26,06,03,16.20
2019,09,26,06,04,16.20
2019,09,26,08,19,14.60
2019,09,26,08,20,14.60
2019,09,26,08,21,14.60
2019,09,26,08,22,14.60
2019,09,26,08,23,14.60
2019,09,26,08,24,14.60
2019,09,26,08,25,14.60
2019,09,26,08,26,14.60
2019,09,26,08,27,14.60
2019,09,26,08,28,14.60
2019,09,26,08,29,14.60
2019,09,26,08,30,14.60
2019,09,26,08,31,14.60
2019,09,26,08,32,14.60
2019,09,26,08,33,14.60
2019,09,26,08,34,14.60
2019,09,26,08,35,14.60
2019,09,26,08,36,14.70
2019,09,26,08,37,14.60
2019,09,26,08,38,14.60
2019,09,26,08,39,14.60
2019,09,26,08,40,14.60
2019,09,26,08,41,14.60
2019,09,26,08,42,14.60
2019,09,26,08,43,14.60
2019,09,26,08,44,14.60
2019,09,26,08,45,14.60
2019,09,26,08,46,14.70
2019,09,26,08,47,14.70
2019,09,26,08,48,14.70
2019,09,26,08,49,14.70
2019,09,26,08,50,14.70
2019,09,26,08,51,14.70
2019,09,26,08,52,14.70
2019,09,26,08,53,14.70
2019,09,26,08,54,14.80
2019,09,26,08,55,14.80
2019,09,26,08,56,14.80
2019,09,26,08,57,14.80
2019,09,26,08,58,14.80
2019,09,26,08,59,14.80
2019,09,26,09,00,14.80
2019,09,26,09,01,14.90
2019,09,26,09,02,14.90
2019,09,26,09,03,15.00
2019,09,26,09,04,15.00
2019,09,26,09,05,15.00
2019,09,26,09,06,15.10
2019,09,26,09,07,15.10
2019,09,26,09,08,15.10
2019,09,26,09,09,15.10
2019,09,26,09,10,15.10
2019,09,26,09,11,15.10
2019,09,26,09,12,15.10
2019,09,26,09,13,15.20
2019,09,26,09,14,15.20
2019,09,26,09,15,15.20
2019,09,26,09,16,15.20
2019,09,26,09,17,15.20
2019,09,26,09,18,15.20
2019,09,26,09,19,15.20
2019,09,26,09,20,15.20
2019,09,26,09,21,15.20
2019,09,26,09,22,15.20
2019,09,26,09,23,15.20
2019,09,26,09,24,15.20
2019,09,26,09,25,15.30
2019,09,26,09,26,15.30
2019,09,26,09,27,15.30
2019,09,26,09,28,15.30
2019,09,26,09,29,15.30
2019,09,26,09,30,15.40
2019,09,26,09,31,15.40
2019,09,26,09,32,15.40
2019,09,26,09,33,15.50
2019,09,26,09,34,15.50
2019,09,26,09,35,15.50
2019,09,26,09,36,15.50
2019,09,26,09,37,15.50
2019,09,26,09,38,15.50
2019,09,26,09,39,15.50
2019,09,26,09,40,15.50
2019,09,26,09,41,15.50
2019,09,26,09,42,15.40
2019,09,26,09,43,15.50
2019,09,26,09,44,15.50
2019,09,26,09,45,15.50
2019,09,26,09,46,15.50
2019,09,26,09,47,15.60
2019,09,26,09,48,15.60
2019,09,26,09,49,15.60
2019,09,26,09,50,15.60
2019,09,26,09,51,15.70
2019,09,26,09,52,15.70
2019,09,26,09,53,15.70
2019,09,26,09,54,15.70
2019,09,26,09,55,15.70
2019,09,26,09,56,15.70
2019,09,26,09,57,15.70
2019,09,26,09,58,15.60
2019,09,26,09,59,15.60
2019,09,26,10,00,15.60
2019,09,26,10,01,15.70
2019,09,26,10,02,15.70
2019,09,26,10,03,15.70
2019,09,26,10,04,15.70
2019,09,26,10,05,15.70
2019,09,26,10,06,15.70
2019,09,26,10,07,15.80
2019,09,26,10,08,15.80
2019,09,26,10,09,15.80
2019,09,26,10,10,15.80
2019,09,26,10,11,15.80
2019,09,26,10,12,15.80
2019,09,26,10,13,15.80
2019,09,26,10,14,15.80
2019,09,26,10,15,15.80
2019,09,26,10,16,15.80
2019,09,26,10,17,15.80
2019,09,26,10,18,15.80
2019,09,26,10,19,15.80
2019,09,26,10,20,15.80
2019,09,26,10,21,15.80
2019,09,26,10,22,15.90
2019,09,26,10,23,15.90
2019,09,26,10,24,15.90
2019,09,26,10,25,16.00
2019,09,26,10,26,16.00
2019,09,26,10,27,16.10
2019,09,26,10,28,16.10
2019,09,26,10,29,16.20
2019,09,26,10,30,16.20
2019,09,26,10,31,16.20
2019,09,26,10,32,16.20
2019,09,26,10,33,16.20
2019,09,26,10,34,16.20
2019,09,26,10,35,16.20
2019,09,26,10,36,16.20
2019,09,26,10,37,16.20
2019,09,26,10,38,16.20
2019,09,26,10,39,16.20
2019,09,26,10,40,16.20
2019,09,26,10,41,16.20
2019,09,26,10,42,16.20
2019,09,26,10,43,16.20
2019,09,26,10,44,16.20
2019,09,26,10,45,16.20
2019,09,26,10,46,16.20
2019,09,26,10,47,16.30
2019,09,26,10,48,16.40
2019,09,26,10,49,16.40
2019,09,26,10,50,16.50
2019,09,26,10,51,16.60
2019,09,26,10,52,16.70
2019,09,26,10,53,16.70
2019,09,26,10,54,16.70
2019,09,26,10,55,16.70
2019,09,26,10,56,16.70
2019,09,26,10,57,16.70
2019,09,26,10,58,16.70
2019,09,26,10,59,16.70
2019,09,26,11,00,16.70
2019,09,26,11,01,16.70
2019,09,26,11,02,16.70
2019,09,26,11,03,16.80
2019,09,26,11,04,16.80
2019,09,26,11,05,16.90
2019,09,26,11,06,17.00
2019,09,26,11,07,17.00
2019,09,26,11,08,17.00
2019,09,26,11,09,17.00
2019,09,26,11,10,17.00
2019,09,26,11,11,17.00
2019,09,26,11,12,17.00
2019,09,26,11,13,17.00
2019,09,26,11,14,17.00
2019,09,26,11,15,17.00
2019,09,26,11,16,17.00
2019,09,26,11,17,17.10
2019,09,26,11,18,17.10
2019,09,26,11,19,17.10
2019,09,26,11,20,17.00
2019,09,26,11,21,17.00
2019,09,26,11,22,17.00
2019,09,26,11,23,17.00
2019,09,26,11,24,17.00
2019,09,26,11,25,17.00
2019,09,26,11,26,17.00
2019,09,26,11,27,17.00
2019,09,26,11,28,17.10
2019,09,26,11,29,17.10
2019,09,26,11,30,17.10
2019,09,26,11,31,17.10
2019,09,26,11,32,17.20
2019,09,26,11,33,17.20
2019,09,26,11,34,17.30
2019,09,26,11,35,17.30
2019,09,26,11,36,17.40
2019,09,26,11,37,17.40
2019,09,26,11,38,17.40
2019,09,26,11,39,17.50
2019,09,26,11,40,17.50
2019,09,26,11,41,17.60
2019,09,26,11,42,17.60
2019,09,26,11,43,17.60
2019,09,26,11,44,17.60
2019,09,26,11,45,17.60
2019,09,26,11,46,17.60
2019,09,26,11,47,17.60
2019,09,26,11,48,17.70
2019,09,26,11,49,17.70
2019,09,26,11,50,17.70
2019,09,26,11,51,17.80
2019,09,26,11,52,17.80
2019,09,26,11,53,17.80
2019,09,26,11,54,17.80
2019,09,26,11,55,17.80
2019,09,26,11,56,17.80
2019,09,26,11,57,17.90
2019,09,26,11,58,17.90
2019,09,26,11,59,17.90
2019,09,26,12,00,18.00
2019,09,26,12,01,18.00
2019,09,26,12,02,18.10
2019,09,26,12,03,18.10
2019,09,26,12,04,18.10
2019,09,26,12,05,18.10
2019,09,26,12,06,18.20
2019,09,26,12,07,18.20
2019,09,26,12,08,18.20
2019,09,26,12,09,18.20
2019,09,26,12,10,18.20
2019,09,26,12,11,18.20
2019,09,26,12,12,18.20
2019,09,26,12,13,18.10
2019,09,26,12,14,18.10
2019,09,26,12,15,18.00
2019,09,26,12,16,18.00
2019,09,26,12,17,17.90
2019,09,26,12,18,17.90
2019,09,26,12,19,17.90
2019,09,26,12,20,17.90
2019,09,26,12,21,17.90
2019,09,26,12,22,18.00
2019,09,26,12,23,17.90
2019,09,26,12,24,17.90
2019,09,26,12,25,17.90
2019,09,26,12,26,17.90
2019,09,26,12,27,17.80
2019,09,26,12,28,17.80
2019,09,26,12,29,17.90
2019,09,26,12,30,17.90
2019,09,26,12,31,17.90
2019,09,26,12,32,17.90
2019,09,26,12,33,17.90
2019,09,26,12,34,17.90
2019,09,26,12,35,17.90
2019,09,26,12,36,17.90
2019,09,26,12,37,17.90
2019,09,26,12,38,17.90
2019,09,26,12,39,17.90
2019,09,26,12,40,18.00
2019,09,26,12,41,18.00
2019,09,26,12,42,18.00
2019,09,26,12,43,18.00
2019,09,26,12,44,17.90
2019,09,26,12,45,17.90
2019,09,26,12,46,17.90
2019,09,26,12,47,17.90
2019,09,26,12,48,17.90
2019,09,26,12,49,17.90
2019,09,26,12,50,17.90
2019,09,26,12,51,17.90
2019,09,26,12,52,17.90
2019,09,26,12,53,17.90
2019,09,26,12,54,17.80
2019,09,26,12,55,17.80
2019,09,26,12,56,17.80
2019,09,26,12,57,17.70
2019,09,26,12,58,17.70
2019,09,26,12,59,17.70
2019,09,26,13,00,17.60
2019,09,26,13,01,17.60
2019,09,26,13,02,17.50
2019,09,26,13,03,17.40
2019,09,26,13,04,17.30
2019,09,26,13,05,17.30
2019,09,26,13,06,17.30
2019,09,26,13,07,17.30
2019,09,26,13,08,17.30
2019,09,26,13,09,17.30
2019,09,26,13,10,17.30
2019,09,26,13,11,17.30
2019,09,26,13,12,17.30
2019,09,26,13,13,17.20
2019,09,26,13,14,17.10
2019,09,26,13,15,17.00
2019,09,26,13,16,17.00
2019,09,26,13,17,16.90
2019,09,26,13,18,16.90
2019,09,26,13,19,16.90
2019,09,26,13,20,16.80
2019,09,26,13,21,16.80
2019,09,26,13,22,16.80
2019,09,26,13,23,16.80
2019,09,26,13,24,16.70
2019,09,26,13,25,16.70
2019,09,26,13,26,16.80
2019,09,26,13,27,16.80
2019,09,26,13,28,16.80
2019,09,26,13,29,16.80
2019,09,26,13,30,16.90
2019,09,26,13,31,16.90
2019,09,26,13,32,17.00
2019,09,26,13,33,17.10
2019,09,26,13,34,17.10
2019,09,26,13,35,17.20
2019,09,26,13,36,17.30
2019,09,26,13,37,17.30
2019,09,26,13,38,17.40
2019,09,26,13,39,17.40
2019,09,26,13,40,17.50
2019,09,26,13,41,17.50
2019,09,26,13,42,17.60
2019,09,26,13,43,17.60
2019,09,26,13,44,17.50
2019,09,26,13,45,17.50
2019,09,26,13,46,17.50
2019,09,26,13,47,17.50
2019,09,26,13,48,17.50
2019,09,26,13,49,17.50
2019,09,26,13,50,17.50
2019,09,26,13,51,17.50
2019,09,26,13,52,17.60
2019,09,26,13,53,17.50
2019,09,26,13,54,17.50
2019,09,26,13,55,17.50
2019,09,26,13,56,17.50
2019,09,26,13,57,17.50
2019,09,26,13,58,17.40
2019,09,26,13,59,17.50
2019,09,26,14,00,17.50
2019,09,26,14,01,17.60
2019,09,26,14,02,17.70
2019,09,26,14,03,17.70
2019,09,26,14,04,17.70
2019,09,26,14,05,17.70
2019,09,26,14,06,17.80
2019,09,26,14,07,17.80
2019,09,26,14,08,17.80
2019,09,26,14,09,17.80
2019,09,26,14,10,17.80
2019,09,26,14,11,17.80
2019,09,26,14,12,17.80
2019,09,26,14,13,17.90
2019,09,26,14,14,17.80
2019,09,26,14,15,17.80
2019,09,26,14,16,17.90
2019,09,26,14,17,17.80
2019,09,26,14,18,17.80
2019,09,26,14,19,17.80
2019,09,26,14,20,17.70
2019,09,26,14,21,17.60
2019,09,26,14,22,17.60
2019,09,26,14,23,17.60
2019,09,26,14,24,17.60
2019,09,26,14,25,17.60
2019,09,26,14,26,17.60
2019,09,26,14,27,17.60
2019,09,26,14,28,17.70
2019,09,26,14,29,17.70
2019,09,26,14,30,17.70
2019,09,26,14,31,17.70
2019,09,26,14,32,17.70
2019,09,26,14,33,17.70
2019,09,26,14,34,17.70
2019,09,26,14,35,17.70
2019,09,26,14,36,17.70
2019,09,26,14,37,17.60
2019,09,26,14,38,17.60
2019,09,26,14,39,17.60
2019,09,26,14,40,17.60
2019,09,26,14,41,17.60
2019,09,26,14,42,17.60
2019,09,26,14,43,17.50
2019,09,26,14,44,17.60
2019,09,26,14,45,17.70
2019,09,26,14,46,17.70
2019,09,26,14,47,17.70
2019,09,26,14,48,17.70
2019,09,26,14,49,17.80
2019,09,26,14,50,17.90
2019,09,26,14,51,17.90
2019,09,26,14,52,17.90
2019,09,26,14,53,17.90
2019,09,26,14,54,17.90
2019,09,26,14,55,17.90
2019,09,26,14,56,17.90
2019,09,26,14,57,17.90
2019,09,26,14,58,17.90
2019,09,26,14,59,17.80
2019,09,26,15,00,17.80
2019,09,26,15,01,17.80
2019,09,26,15,02,17.90
2019,09,26,15,03,17.90
2019,09,26,15,04,17.90
2019,09,26,15,05,17.90
2019,09,26,15,06,17.90
2019,09,26,15,07,17.90
2019,09,26,15,08,17.90
2019,09,26,15,09,17.90
2019,09,26,15,10,17.90
2019,09,26,15,11,17.90
2019,09,26,15,12,17.90
2019,09,26,15,13,18.00
2019,09,26,15,14,18.00
2019,09,26,15,15,18.10
2019,09,26,15,16,18.10
2019,09,26,15,17,18.10
2019,09,26,15,18,18.10
2019,09,26,15,19,18.10
2019,09,26,15,20,18.10
2019,09,26,15,21,18.10
2019,09,26,15,22,18.10
2019,09,26,15,23,18.10
2019,09,26,15,24,18.00
2019,09,26,15,25,18.00
2019,09,26,15,26,18.00
2019,09,26,15,27,18.00
2019,09,26,15,28,17.90
2019,09,26,15,29,17.90
2019,09,26,15,30,17.90
2019,09,26,15,31,17.90
2019,09,26,15,32,17.90
2019,09,26,15,33,17.90
2019,09,26,15,34,18.00
2019,09,26,15,35,18.00
2019,09,26,15,36,18.10
2019,09,26,15,37,18.10
2019,09,26,15,38,18.20
2019,09,26,15,39,18.20
2019,09,26,15,40,18.20
2019,09,26,15,41,18.10
2019,09,26,15,42,18.10
2019,09,26,15,43,18.10
2019,09,26,15,44,18.10
2019,09,26,15,45,18.10
2019,09,26,15,46,18.00
2019,09,26,15,47,18.00
2019,09,26,15,48,18.00
2019,09,26,15,49,18.10
2019,09,26,15,50,18.10
2019,09,26,15,51,18.10
2019,09,26,15,52,18.10
2019,09,26,15,53,18.10
2019,09,26,15,54,18.00
2019,09,26,15,55,17.90
2019,09,26,15,56,17.90
2019,09,26,15,57,17.90
2019,09,26,15,58,17.90
2019,09,26,15,59,17.90
2019,09,26,16,00,17.90
2019,09,26,16,01,17.90
2019,09,26,16,02,17.90
2019,09,26,16,03,17.90
2019,09,26,16,04,18.00
2019,09,26,16,05,18.10
2019,09,26,16,06,18.10
2019,09,26,16,07,18.10
2019,09,26,16,08,18.10
2019,09,26,16,09,18.10
2019,09,26,16,10,18.10
2019,09,26,16,11,18.20
2019,09,26,16,12,18.20
2019,09,26,16,13,18.20
2019,09,26,16,14,18.30
2019,09,26,16,15,18.40
2019,09,26,16,16,18.40
2019,09,26,16,17,18.40
2019,09,26,16,18,18.50
2019,09,26,16,19,18.40
2019,09,26,16,20,18.40
2019,09,26,16,21,18.40
2019,09,26,16,22,18.40
2019,09,26,16,23,18.40
2019,09,26,16,24,18.40
2019,09,26,16,25,18.40
2019,09,26,16,26,18.40
2019,09,26,16,27,18.40
2019,09,26,16,28,18.40
2019,09,26,16,29,18.40
2019,09,26,16,30,18.40
2019,09,26,16,31,18.50
2019,09,26,16,32,18.60
2019,09,26,16,33,18.60
2019,09,26,16,34,18.70
2019,09,26,16,35,18.60
2019,09,26,16,36,18.60
2019,09,26,16,37,18.60
2019,09,26,16,38,18.60
2019,09,26,16,39,18.70
2019,09,26,16,40,18.70
2019,09,26,16,41,18.70
2019,09,26,16,42,18.70
2019,09,26,16,43,18.70
2019,09,26,16,44,18.70
2019,09,26,16,45,18.60
2019,09,26,16,46,18.60
2019,09,26,16,47,18.60
2019,09,26,16,48,18.60
2019,09,26,16,49,18.50
2019,09,26,16,50,18.50
2019,09,26,16,51,18.40
2019,09,26,16,52,18.30
2019,09,26,16,53,18.30
2019,09,26,16,54,18.20
2019,09,26,16,55,18.20
2019,09,26,16,56,18.20
2019,09,26,16,57,18.20
2019,09,26,16,58,18.20
2019,09,26,16,59,18.10
2019,09,26,17,00,18.10
2019,09,26,17,01,18.10
2019,09,26,17,02,18.00
2019,09,26,17,03,18.00
2019,09,26,17,04,17.90
2019,09,26,17,05,17.90
2019,09,26,17,06,17.80
2019,09,26,17,07,17.80
2019,09,26,17,08,17.80
2019,09,26,17,09,17.80
2019,09,26,17,10,17.80
2019,09,26,17,11,17.80
2019,09,26,17,12,17.80
2019,09,26,17,13,17.80
2019,09,26,17,14,17.80
2019,09,26,17,15,17.80
2019,09,26,17,16,17.80
2019,09,26,17,17,17.80
2019,09,26,17,18,17.80
2019,09,26,17,19,17.80
2019,09,26,17,20,17.80
2019,09,26,17,21,17.70
2019,09,26,17,22,17.70
2019,09,26,17,23,17.70
2019,09,26,17,24,17.70
2019,09,26,17,25,17.70
2019,09,26,17,26,17.70
2019,09,26,17,27,17.70
2019,09,26,17,28,17.70
2019,09,26,17,29,17.70
2019,09,26,17,30,17.70
2019,09,26,17,31,17.70
2019,09,26,17,32,17.70
2019,09,26,17,33,17.70
2019,09,26,17,34,17.60
2019,09,26,17,35,17.50
2019,09,26,17,36,17.50
2019,09,26,17,37,17.40
2019,09,26,17,38,17.40
2019,09,26,17,39,17.30
2019,09,26,17,40,17.30
2019,09,26,17,41,17.30
2019,09,26,17,42,17.20
2019,09,26,17,43,17.20
2019,09,26,17,44,17.20
2019,09,26,17,45,17.10
2019,09,26,17,46,17.00
2019,09,26,17,47,17.00
2019,09,26,17,48,16.90
2019,09,26,17,49,16.90
2019,09,26,17,50,16.90
2019,09,26,17,51,16.90
2019,09,26,17,52,16.80
2019,09,26,17,53,16.80
2019,09,26,17,54,16.80
2019,09,26,17,55,16.70
2019,09,26,17,56,16.70
2019,09,26,17,57,16.70
2019,09,26,17,58,16.70
2019,09,26,17,59,16.70
2019,09,26,18,00,16.60
2019,09,26,18,01,16.60
2019,09,26,18,02,16.50
2019,09,26,18,03,16.40
2019,09,26,18,04,16.40
2019,09,26,18,05,16.30
2019,09,26,18,06,16.30
2019,09,26,18,07,16.20
2019,09,26,18,08,16.20
2019,09,26,18,09,16.20
2019,09,26,18,10,16.20
2019,09,26,18,11,16.20
2019,09,26,18,12,16.10
2019,09,26,18,13,16.10
2019,09,26,18,14,16.10
2019,09,26,18,15,16.00
2019,09,26,18,16,15.90
2019,09,26,18,17,15.90
2019,09,26,18,18,15.80
2019,09,26,18,19,15.70
2019,09,26,18,20,15.70
2019,09,26,18,21,15.60
2019,09,26,18,22,15.60
2019,09,26,18,23,15.60
2019,09,26,18,24,15.60
2019,09,26,18,25,15.50
2019,09,26,18,26,15.50
2019,09,26,18,27,15.40
2019,09,26,18,28,15.40
2019,09,26,18,29,15.30
2019,09,26,18,30,15.30
2019,09,26,18,31,15.20
2019,09,26,18,32,15.10
2019,09,26,18,33,15.10
2019,09,26,18,34,15.00
2019,09,26,18,35,15.00
2019,09,26,18,36,14.90
2019,09,26,18,37,14.80
2019,09,26,18,38,14.70
2019,09,26,18,39,14.70
2019,09,26,18,40,14.60
2019,09,26,18,41,14.60
2019,09,26,18,42,14.50
2019,09,26,18,43,14.50
2019,09,26,18,44,14.40
2019,09,26,18,45,14.40
2019,09,26,18,46,14.30
2019,09,26,18,47,14.30
2019,09,26,18,48,14.30
2019,09,26,18,49,14.20
2019,09,26,18,50,14.20
2019,09,26,18,51,14.20
2019,09,26,18,52,14.20
2019,09,26,18,53,14.20
2019,09,26,18,54,14.20
2019,09,26,18,55,14.10
2019,09,26,18,56,14.10
2019,09,26,18,57,14.10
2019,09,26,18,58,14.10
2019,09,26,18,59,14.10
2019,09,26,19,00,14.10
2019,09,26,19,01,14.00
2019,09,26,19,02,14.00
2019,09,26,19,03,14.00
2019,09,26,19,04,14.00
2019,09,26,19,05,13.90
2019,09,26,19,06,13.90
2019,09,26,19,07,13.90
2019,09,26,19,08,13.90
2019,09,26,19,09,13.90
2019,09,26,19,10,13.90
2019,09,26,19,11,13.90
2019,09,26,19,12,13.90
2019,09,26,19,13,13.90
2019,09,26,19,14,13.80
2019,09,26,19,15,13.80
2019,09,26,19,16,13.80
2019,09,26,19,17,13.80
2019,09,26,19,18,13.80
2019,09,26,19,19,13.80
2019,09,26,19,20,13.80
2019,09,26,19,21,13.80
2019,09,26,19,22,13.80
2019,09,26,19,23,13.70
2019,09,26,19,24,13.70
2019,09,26,19,25,13.70
2019,09,26,19,26,13.70
2019,09,26,19,27,13.70
2019,09,26,19,28,13.70
2019,09,26,19,29,13.70
2019,09,26,19,30,13.70
2019,09,26,19,31,13.60
2019,09,26,19,32,13.60
2019,09,26,19,33,13.60